Location: Aalen
(48.8330°N, 10.1000°E)
Time: 13:48:54
(UTC+02:00)

Vanguard 2 - All Passes

Search period start: 04 August 2021 00:00
Search period end: 14 August 2021 00:00
Orbit: 552 x 2937 km, 32.9° (Epoch: 03 August)

Date Brightness Start Highest point End Pass type
(mag) Time Alt. Az. Time Alt. Az. Time Alt. Az.
04 Aug - 07:15:46 10° SSW 07:17:47 13° S 07:20:02 10° SSE daylight
04 Aug - 09:23:56 10° SSW 09:25:22 11° S 09:26:55 10° S daylight
05 Aug - 07:33:34 10° SSW 07:35:11 12° S 07:36:58 10° SSE daylight
12 Aug - 03:14:27 10° S 03:15:07 10° S 03:15:45 10° S visible
13 Aug - 03:31:01 10° SSW 03:32:31 11° S 03:33:55 10° SSE visible
